Weather in Karakol

Russia / Altai Republic     50°48′52″N   85°56′42″E
temp.,
°C
wind,
m/s
gust,
m/s
humid.,
%
clouds,
%
prec.,
mm/h
press.,
hPa
HPBL,
m
14 may, fri
fri1401:00+5sse117797 0.5 101412
04:00+3se1177100 0.0 101411
07:00+5ese1174100 0.0 101580
10:00+6wsw1171100 0.2 1017601
13:00+9nw216091 0.5 1016936
16:00+11nw335084 0.8 10161583
19:00+6nw3386100 3.0 1021629
22:00+4w229352 1.3 102441
15 may, sat
sat1501:00+5wnw0193100 2.1 1025366
04:00+4sw019394 0.1 102586
07:00+5nne018575 0.1 1026291
10:00+8e1169100 0.1 1025884
13:00+12ne11485 0.1 10231251
16:00+14n21415 0.0 10211511
19:00+14nne11435 0.0 10211001
22:00+9wnw01625 0.0 102311
16 may, sun
sun1601:00+7sw11674 0.0 102211
04:00+6sw11712 0.0 102310
07:00+7s11685 0.0 102253
10:00+13ne11510 0.0 1020560
13:00+17nnw12365 0.0 10181442
16:00+18nnw333456 0.0 10162134
19:00+15nne225376 0.3 1017599
22:00+11sw116936 0.1 101811
17 may, mon
mon1701:00+9sw22805 0.7 101822
04:00+9sw227638 0.0 101717
07:00+10ssw117295 0.0 101646
10:00+13nw4764100 0.4 1016944
13:00+13wsw2465100 4.1 10171107
16:00+10e118390 1.4 1017178
19:00+12ene217413 1.7 1016497
22:00+8sse119173 0.2 101810
18 may, tue
tue1801:00+7s11918 0.2 101710
04:00+7sw119281 0.0 101713
07:00+9ese00865 0.0 101763
10:00+14nnw11595 0.0 1015856
13:00+17nw144226 0.0 10132110
16:00+15nnw565474 0.1 10131192
19:00+16wsw254547 0.1 10101622
22:00+11sw336655 0.0 101139